{"data":{"norad_id":64848,"epoch":"2026-09-20T13:41:05.058816Z","epoch_age_seconds":118128,"freshness":"FRESH","line1":"1 64848U 25152G   26263.57019744  .00014639  00000+0  45466-3 0  9991","line2":"2 64848  97.2813 114.1119 0002336  88.3260 271.8250 15.33458588 64837","mean_motion":15.33458588,"eccentricity":0.0002336,"inclination_deg":97.2813,"raan_deg":114.1119,"arg_perigee_deg":88.326,"mean_anomaly_deg":271.825,"bstar":0.00045466,"rev_number":6483,"period_min":93.905372552519,"perigee_km":463.90407220386,"apogee_km":467.1014206934,"semimajor_km":6843.6397464486,"source":"CELESTRAK","updated_at":"2026-09-21T09:00:35.449573Z"}}